User: anonymous   Login
Location: Unspecified
(0.0000°N, 0.0000°E)
Time: 19:49:54
(UTC+00:00)
Language:

GEOS 3 - Orbit

View from above orbital plane
View from above orbital plane
View from above satellite
View from above satellite

Ground track
Ground track

The orbit data is extracted from the following two-line orbital elements,

1  7734U 75027A   17268.71592674 -.00000148 +00000-0 +13491-4 0  9993
2  7734 114.9882 180.3816 0016070 308.8694 051.0949 14.18606171197218
Epoch (UTC): 25 September 2017 17:10:56
Eccentricity: 0.0016070
inclination: 114.9882°
perigee height: 818 km
apogee height: 841 km
right ascension of ascending node: 180.3816°
argument of perigee: 308.8694°
revolutions per day: 14.18606171
mean anomaly at epoch: 51.0949°
orbit number at epoch: 19721

The dashed part of the orbit path shows where the satellite is in the earth's shadow,  

DLR